Flag for Canada

Past Weather in Yorkton, Saskatchewan, Canada — Yesterday and Last 2 Weeks

Now
73 °F

Sunny.


Feels Like: 76 °F
Forecast: 73 / 55 °F
Wind: 9 mph from Northwest

Location: Yorkton

Current Time: Jul 13, 2020 at 12:06:11 pm

Latest Report: Jul 13, 2020 at 11:00 am


Visibility: 9 mi

Pressure: 29.65 "Hg (27.98 "Hg at 505m altitude)

Humidity: 61%

Dew Point: 59 °F

Location of YorktonLocation

Past Weather in Yorkton — Graph

°F

Yorkton Temperature Yesterday

Maximum temperature yesterday: 81 °F (at 1:00 pm)
Minimum temperature yesterday: 55 °F (at 5:00 am)
Average temperature yesterday: 69 °F

High & Low Weather Summary for the Past Weeks

 TemperatureHumidityPressure
High86 °F (Jul 3, 5:00 pm)100% (Jun 29, 12:03 am)30.08 "Hg (Jun 29, 12:03 am)
Low52 °F (Jul 7, 4:00 am)29% (Jul 3, 5:00 pm)29.53 "Hg (Jul 9, 12:48 am)
Average68 °F77%29.81 "Hg
* Reported Jun 28 11:24 am — Jul 13 11:00 am, Yorkton. Weather by CustomWeather, © 2020

Note: Actual official high and low records may vary slightly from our data, if they occured in-between our weather recording intervals... More about our weather records

Yorkton Weather History for the Previous 24 Hours

Scroll right to see more
 ConditionsComfort  
Time TempWeatherWind HumidityBarometerVisibility
11:00 am
Mon, Jul 13
73 °FSunny.9 mph61%29.65 "Hg9 mi
10:00 am70 °FSunny.8 mph69%29.65 "Hg9 mi
9:00 am68 °FPassing clouds.10 mph78%29.64 "Hg9 mi
8:00 am64 °FSunny.10 mph94%29.64 "Hg9 mi
7:00 am61 °FPassing clouds.9 mph100%29.63 "Hg9 mi
6:00 am61 °FSunny.9 mph94%29.62 "Hg9 mi
5:00 am61 °FPassing clouds.8 mph100%29.62 "Hg9 mi
4:00 am63 °FPassing clouds.9 mph94%29.62 "Hg9 mi
3:00 am63 °FClear.14 mph94%29.64 "Hg9 mi
2:00 am63 °FClear.13 mph94%29.64 "Hg9 mi
1:00 am61 °FClear.9 mph100%29.65 "Hg9 mi
12:00 am63 °FClear.12 mph88%29.65 "Hg9 mi
11:00 pm
Sun, Jul 12
63 °FClear.9 mph88%29.67 "Hg9 mi
10:00 pm63 °FPassing clouds.9 mph88%29.64 "Hg9 mi
9:06 pm68 °FClear.15 mph83%29.66 "Hg9 mi
8:56 pm68 °FThundershowers. Passing clouds.20 mph88%29.66 "Hg9 mi
8:28 pm70 °FThunderstorms. Fog.15 mph88%29.64 "Hg6 mi
8:13 pm70 °FThunderstorms. Fog.6 mph83%29.68 "Hg4 mi
7:33 pm73 °FThunderstorms. Mostly cloudy.8 mph69%29.66 "Hg6 mi
6:00 pm81 °FBroken clouds.17 mph51%29.70 "Hg9 mi
5:00 pm81 °FPartly sunny.20 mph48%29.72 "Hg9 mi
4:00 pm81 °FPartly sunny.17 mph42%29.75 "Hg9 mi
3:00 pm81 °FScattered clouds.17 mph39%29.76 "Hg9 mi
2:00 pm81 °FPartly sunny.10 mph39%29.78 "Hg9 mi
1:00 pm81 °FSunny.13 mph39%29.81 "Hg9 mi
12:00 pm79 °FSunny.10 mph39%29.84 "Hg9 mi
Weather by CustomWeather, © 2020

See weather overview